Darstellungsparameter: Aktuell verwendete Einstellungen:
Skalierung der Graphiken ... ?
xyx+y,   Skalierungsfaktor:      Skalierung: Modus: x, Faktor: 1
Darstellungszeitraum ... ?
Vom - - bis: - -   Zeitraum: 25.04.2015 - 24.10.2020
Min/Max/Avg-Anzeige ... ?
Zeige MMA aktuell
Zeige MMA Monat
Zeige MMA alles
Zeige --A aktuell
Zeige --A Monat
Zeige --A alles
Keine MMA-Anzeige
MMA:
Keine MMA-Graphiken
MMA-Basis: 25.04.2015 - 24.10.2020
Quicknavigation für Darstellung... ?
Tage:      1T, 2T, 3T, 5T -1T -2T -3T -5T +1T +2T +3T +5T
Wochen: 1W, 2W, 3W -1W -2W -3W +1W +2W +3W
Monate: 1M, 3M, 6M -1M -3M -6M +1M +3M +6M
Jahre:    1J, 3J, 5J, 10J -1J -3J -5J -10J +1J +3J +5J +10J
Nutze für die Darstellung ... ?
Originaldaten oder ...
Mittelwerte Minima Maxima auf...
Stundenbasis Tagesbasis Wochenbasis
Monatsbasis Jahresbasis      Datenbasis: Mittelwerte auf Monatsbasis
Darstellen als:
Statistik (Auto) Statistik J:M      Darstellung:

Der gewünschte Datumsbereich war nicht gültig/verfügbar und wurde korrigiert....
Das angegebene Enddatum (24.04.2025 23:59:59) liegt in der Zukunft.


Zur Graphik,    zurück zur Übersicht aller Sensoren.
 
Tabellarische Datenbersicht: ?
 
Sensor: Nr:Datum:Temp:Feuchte:Taupunkt:
Aussen-T/F 1 01-04-2015 00:00:00 10.36598 C 71.7014 % 5.48 C
2 01-05-2015 00:00:00 14.07531 C 73.2255 % 9.36 C
3 01-06-2015 00:00:00 17.29228 C 73.4007 % 12.49 C
4 01-07-2015 00:00:00 21.37994 C 68.0782 % 15.25 C
5 01-08-2015 00:00:00 20.33613 C 74.6267 % 15.68 C
6 01-09-2015 00:00:00 13.69299 C 85.6093 % 11.33 C
7 01-10-2015 00:00:00 9.51401 C 90.3862 % 8.02 C
8 01-11-2015 00:00:00 8.865 C 89.6079 % 7.25 C
9 01-12-2015 00:00:00 7.80433 C 92.2309 % 6.62 C
10 01-01-2016 00:00:00 3.98089 C 90.5594 % 2.58 C
11 01-02-2016 00:00:00 4.85946 C 86.5095 % 2.8 C
12 01-03-2016 00:00:00 5.35347 C 83.8266 % 2.84 C
13 01-04-2016 00:00:00 9.1925 C 77.5892 % 5.49 C
14 01-05-2016 00:00:00 14.42697 C 76.5149 % 10.35 C
15 01-06-2016 00:00:00 17.47186 C 85.5889 % 15.03 C
16 01-07-2016 00:00:00 19.3988 C 80.8493 % 16.03 C
17 01-08-2016 00:00:00 18.44104 C 80.9870 % 15.12 C
18 01-09-2016 00:00:00 17.14113 C 81.8107 % 14.01 C
19 01-10-2016 00:00:00 9.46091 C 92.7646 % 8.35 C
20 01-11-2016 00:00:00 5.51435 C 92.1532 % 4.34 C
21 01-12-2016 00:00:00 3.09223 C 92.3398 % 1.97 C
22 01-01-2017 00:00:00 -0.95289 C 91.0813 % -2.22 C
23 01-02-2017 00:00:00 5.07645 C 87.6373 % 3.2 C
24 01-03-2017 00:00:00 8.9644 C 78.2871 % 5.39 C
25 01-04-2017 00:00:00 9.01126 C 72.2505 % 4.29 C
Sensor: Nr:Datum:Temp:Feuchte:Taupunkt:
Aussen-T/F 26 01-05-2017 00:00:00 15.43007 C 77.9584 % 11.61 C
27 01-06-2017 00:00:00 19.3085 C 73.6347 % 14.48 C
28 01-07-2017 00:00:00 19.40309 C 79.9853 % 15.86 C
29 01-08-2017 00:00:00 18.15116 C 86.5572 % 15.87 C
30 01-09-2017 00:00:00 13.52826 C 89.7003 % 11.87 C
31 01-10-2017 00:00:00 11.9519 C 90.4845 % 10.45 C
32 01-11-2017 00:00:00 6.29456 C 92.3240 % 5.14 C
33 01-12-2017 00:00:00 4.62593 C 91.5790 % 3.38 C
34 01-01-2018 00:00:00 6.22071 C 90.0422 % 4.71 C
35 01-02-2018 00:00:00 -0.11999 C 82.5022 % -2.73 C
36 01-03-2018 00:00:00 4.77696 C 82.4981 % 2.06 C
37 01-04-2018 00:00:00 13.19043 C 75.1704 % 8.9 C
38 01-05-2018 00:00:00 16.37003 C 76.6050 % 12.25 C
39 01-06-2018 00:00:00 18.967 C 77.0255 % 14.85 C
40 01-07-2018 00:00:00 21.4265 C 66.0085 % 14.81 C
41 01-08-2018 00:00:00 20.34943 C 69.7976 % 14.65 C
42 01-09-2018 00:00:00 15.07657 C 77.9959 % 11.27 C
43 01-10-2018 00:00:00 11.07636 C 86.8726 % 8.98 C
44 01-11-2018 00:00:00 6.5436 C 90.9775 % 5.18 C
45 01-12-2018 00:00:00 5.47462 C 90.8528 % 4.1 C
46 01-01-2019 00:00:00 2.43693 C 90.2386 % 1.01 C
47 01-02-2019 00:00:00 4.63271 C 86.1002 % 2.51 C
48 01-03-2019 00:00:00 7.92933 C 80.6664 % 4.82 C
49 01-04-2019 00:00:00 10.85221 C 74.5853 % 6.52 C
50 01-05-2019 00:00:00 12.33311 C 78.4213 % 8.69 C
Sensor: Nr:Datum:Temp:Feuchte:Taupunkt:
Aussen-T/F 51 01-06-2019 00:00:00 20.40804 C 71.4654 % 15.08 C
52 01-07-2019 00:00:00 20.12557 C 69.0118 % 14.26 C
53 01-08-2019 00:00:00 19.47061 C 77.2287 % 15.38 C
54 01-09-2019 00:00:00 14.78313 C 80.4611 % 11.46 C
55 01-10-2019 00:00:00 11.57957 C 91.8204 % 10.3 C
56 01-11-2019 00:00:00 5.97003 C 93.0001 % 4.93 C
57 01-12-2019 00:00:00 4.99817 C 92.2396 % 3.85 C
58 01-01-2020 00:00:00 5.2294 C 90.6841 % 3.83 C
59 01-02-2020 00:00:00 6.71149 C 84.6015 % 4.31 C
60 01-03-2020 00:00:00 7.34168 C 75.5952 % 3.32 C
61 01-04-2020 00:00:00 11.87985 C 65.6584 % 5.66 C
62 01-05-2020 00:00:00 13.53788 C 69.7818 % 8.13 C
63 01-06-2020 00:00:00 17.80934 C 75.9007 % 13.5 C
64 01-07-2020 00:00:00 19.29624 C 68.5065 % 13.36 C
65 01-08-2020 00:00:00 21.10711 C 73.1091 % 16.1 C
66 01-09-2020 00:00:00 15.72771 C 77.4656 % 11.8 C
67 01-10-2020 00:00:00 11.13797 C 89.6614 % 9.51 C

Maximal/Minimal-Werte vom 25.04.2015 - 24.10.2020

Sensor Min Max Avg
Temp
(Aussen-T/F)
-10.6 °C
22-01-2017  07:55:00
40.4 °C
25-07-2019  16:20:00
11.79 °C
Feuchte
(Aussen-T/F)
18 %
17-07-2015  15:55:00
100 %
25-05-2015  14:00:00
81.84 %
Taupunkt
(Aussen-T/F)
-2.73 C
01-02-2018  00:00:00
16.1 C
01-08-2020  00:00:00
8.49 C

Die Daten stammen von einer Davis Vantage Pro 2 Wetter-Station und werden unter Linux mit der Software wview2wettercgi und aufbereitet. Alle Angaben erfolgen ohne Gewähr für ihre Vollständigkeit oder Richtigkeit.
Kontakt: Rainer Krienke krienke@uni-koblenz.de . Meine Webseiten an der Uni Koblenz oder privat.
Version: $Revision: 0.78 $